Torna al catalogo

TITAN 3C TRANSTAGE DEB

LostHEO
NORAD 34164·DEBRIS·🇺🇸 United States

Lanciato Dec 21, 1965 da Cape Canaveral Space Force Station

Loading…

Prossimi Passaggi (prossime 24 ore)

TLE

ObsoletoSource: Space-Track

Epoca: Apr 8, 2026, 07:07 UTC

1 34164U 65108CX  26098.29698455  .00000163  00000-0  30658-2 0  9995
2 34164  25.5768 297.3269 6970535 201.0746 356.7557  2.47833733 90070

Traccia TITAN 3C TRANSTAGE DEB in tempo reale con AllMySat

Download on the App Store